EW4380 Weather Reports


Display with metric or nautical units.
time (UTC)temp
F
wind
direction
speed
MPH
gust
MPH
rain 1hr
in
rain 24hr
in
rain mn
in
humidity
%
barometer
mb
20210625140129 80 159 6.0 12.0 0.00 0.00 0.00 85 1014.6
20210625135558 80 178 5.0 12.0 0.00 0.00 0.00 85 1014.8
20210625135058 79 169 4.0 8.0 0.00 0.00 0.00 86 1014.7
20210625134629 79 159 4.0 10.0 0.00 0.00 0.00 86 1014.6
20210625134048 79 164 5.0 11.0 0.00 0.00 0.00 86 1014.5
20210625133605 79 161 6.0 14.0 0.00 0.00 0.00 87 1014.6
20210625133243 79 175 7.0 14.0 0.00 0.00 0.00 87 1014.6
20210625132545 79 179 6.0 12.0 0.00 0.00 0.00 87 1014.5
20210625132046 79 157 7.0 11.0 0.00 0.00 0.00 87 1014.4
20210625131657 79 153 3.0 9.0 0.00 0.00 0.00 88 1014.4
20210625131049 78 202 5.0 10.0 0.00 0.00 0.00 88 1014.3
20210625130608 78 144 4.0 10.0 0.00 0.00 0.00 88 1014.3
20210625130113 78 142 2.0 13.0 0.00 0.00 0.00 88 1014.2
20210625125548 78 151 5.0 13.0 0.00 0.00 0.00 88 1014.2
20210625125042 78 138 5.0 10.0 0.00 0.00 0.00 89 1014.1
20210625124630 78 163 4.0 10.0 0.00 0.00 0.00 89 1014.1
20210625124100 78 181 4.0 10.0 0.00 0.00 0.00 89 1014.1
20210625123541 78 130 2.0 9.0 0.00 0.00 0.00 90 1014.1
20210625123119 78 130 4.0 9.0 0.00 0.00 0.00 90 1014.1
20210625122541 77 146 4.0 12.0 0.00 0.00 0.00 90 1014.1
20210625122041 77 144 6.0 12.0 0.00 0.00 0.00 90 1014.0
20210625121559 77 188 3.0 8.0 0.00 0.00 0.00 91 1014.0
20210625121046 77 162 3.0 8.0 0.00 0.00 0.00 91 1014.0
20210625120543 77 178 4.0 7.0 0.00 0.00 0.00 91 1014.1
20210625120107 77 128 3.0 6.0 0.00 0.00 0.00 91 1014.1
20210625115539 77 155 1.0 6.0 0.00 0.00 0.00 91 1014.2
20210625115039 77 167 3.0 10.0 0.00 0.00 0.00 91 1014.1
20210625114626 77 162 5.0 10.0 0.00 0.00 0.00 90 1014.2
20210625114050 77 169 6.0 11.0 0.00 0.00 0.00 90 1014.2
20210625113537 77 131 3.0 11.0 0.00 0.00 0.00 91 1014.1
20210625113104 77 106 4.0 9.0 0.00 0.00 0.00 91 1014.0
20210625112537 77 163 3.0 9.0 0.00 0.00 0.00 91 1014.1
20210625112055 77 180 3.0 9.0 0.00 0.00 0.00 90 1014.1
20210625111707 77 157 3.0 9.0 0.00 0.00 0.00 91 1014.0
20210625111036 77 187 3.0 9.0 0.00 0.00 0.00 91 1013.9
20210625110553 77 140 5.0 9.0 0.00 0.00 0.00 91 1013.8
20210625110116 77 190 3.0 12.0 0.00 0.00 0.00 91 1013.7
20210625105535 77 140 6.0 12.0 0.00 0.00 0.00 91 1013.6
20210625105035 77 145 3.0 9.0 0.00 0.00 0.00 91 1013.7
20210625104611 77 145 2.0 7.0 0.00 0.00 0.00 91 1013.6
20210625104034 77 148 3.0 7.0 0.00 0.00 0.00 91 1013.6
20210625103548 77 124 2.0 7.0 0.00 0.00 0.00 91 1013.6
20210625103124 77 150 3.0 7.0 0.00 0.00 0.00 91 1013.6
20210625102539 77 151 3.0 10.0 0.00 0.00 0.00 91 1013.6
20210625102034 77 153 2.0 10.0 0.00 0.00 0.00 91 1013.7
20210625101556 77 136 4.0 7.0 0.00 0.00 0.00 91 1013.9
20210625101039 77 190 3.0 8.0 0.00 0.00 0.00 91 1013.7
20210625100550 77 153 4.0 7.0 0.00 0.00 0.00 91 1013.8
20210625100110 77 113 2.0 8.0 0.00 0.00 0.00 91 1013.8
20210625095534 77 119 3.0 11.0 0.00 0.00 0.00 91 1013.7
20210625095056 77 171 3.0 11.0 0.00 0.00 0.00 91 1013.9
20210625094544 77 167 5.0 10.0 0.00 0.00 0.00 91 1013.8
20210625094032 77 146 3.0 7.0 0.00 0.00 0.00 91 1013.7
20210625093616 77 172 5.0 7.0 0.00 0.00 0.00 92 1013.8
20210625093132 77 145 3.0 8.0 0.00 0.00 0.00 92 1013.8
20210625092531 77 139 5.0 10.0 0.00 0.00 0.00 92 1013.8
20210625092031 77 180 4.0 10.0 0.00 0.00 0.00 92 1013.8
20210625091600 77 136 2.0 9.0 0.00 0.00 0.00 92 1013.8
20210625091029 77 138 3.0 11.0 0.00 0.00 0.00 92 1013.9
20210625090529 77 184 4.0 11.0 0.00 0.00 0.00 92 1013.7
20210625090057 77 163 4.0 11.0 0.00 0.00 0.00 92 1013.8
20210625085532 77 168 5.0 11.0 0.00 0.00 0.00 92 1013.7
20210625085034 77 134 5.0 9.0 0.00 0.00 0.00 92 1013.7
20210625084546 76 111 4.0 11.0 0.00 0.00 0.00 93 1013.7
20210625084041 76 145 4.0 12.0 0.00 0.00 0.00 93 1013.9
20210625083526 76 146 3.0 11.0 0.00 0.00 0.00 93 1013.7
20210625083050 76 165 4.0 11.0 0.00 0.00 0.00 93 1013.6
20210625082534 76 184 4.0 11.0 0.00 0.00 0.00 94 1013.7
20210625082026 76 151 4.0 9.0 0.00 0.00 0.00 94 1013.7
20210625081550 76 131 2.0 7.0 0.00 0.00 0.00 94 1013.6
20210625081024 76 130 2.0 5.0 0.00 0.00 0.00 94 1013.7
20210625080531 76 138 1.0 5.0 0.00 0.00 0.00 93 1013.6
20210625080052 76 117 2.0 6.0 0.00 0.00 0.00 93 1013.6
20210625075523 76 141 2.0 7.0 0.00 0.00 0.00 93 1013.7
20210625075022 76 148 2.0 6.0 0.00 0.00 0.00 93 1013.7
20210625074531 76 150 2.0 5.0 0.00 0.00 0.00 92 1013.8
20210625074022 76 136 2.0 4.0 0.00 0.00 0.00 92 1013.9
20210625073521 77 129 1.0 4.0 0.00 0.00 0.00 92 1013.8
20210625073049 77 150 1.0 7.0 0.00 0.00 0.00 92 1013.8
20210625072546 77 143 4.0 7.0 0.00 0.00 0.00 92 1013.7
20210625072020 77 142 3.0 9.0 0.00 0.00 0.00 92 1013.6
20210625071518 77 139 4.0 9.0 0.00 0.00 0.00 91 1013.6
20210625071018 77 117 3.0 8.0 0.00 0.00 0.00 91 1013.6
20210625070521 77 146 3.0 9.0 0.00 0.00 0.00 91 1013.6
20210625065533 77 141 4.0 10.0 0.00 0.00 0.00 91 1013.8
20210625065015 77 123 3.0 10.0 0.00 0.00 0.00 91 1013.8
20210625064537 77 150 5.0 11.0 0.00 0.00 0.00 90 1013.7
20210625064023 78 142 3.0 8.0 0.00 0.00 0.00 90 1013.7
20210625063513 78 169 4.0 9.0 0.00 0.00 0.00 90 1013.6
20210625063026 78 126 4.0 9.0 0.00 0.00 0.00 90 1013.5
20210625062511 78 134 3.0 13.0 0.00 0.00 0.00 89 1013.6
20210625062011 78 129 4.0 13.0 0.00 0.00 0.00 89 1013.7
20210625061509 78 80 3.0 12.0 0.00 0.00 0.00 89 1013.7
20210625061015 78 118 3.0 12.0 0.00 0.00 0.00 89 1013.7
20210625060506 78 128 3.0 11.0 0.00 0.00 0.00 88 1013.8
20210625060013 79 167 5.0 11.0 0.00 0.00 0.00 88 1013.9
20210625055504 79 150 3.0 8.0 0.00 0.00 0.00 88 1013.8
20210625055004 79 153 3.0 11.0 0.00 0.00 0.00 87 1014.0
20210625054527 79 130 5.0 11.0 0.00 0.00 0.00 87 1014.0
20210625054003 79 164 5.0 11.0 0.00 0.00 0.00 87 1013.8
20210625053506 79 150 4.0 12.0 0.00 0.00 0.00 87 1013.9
20210625053002 79 165 5.0 14.0 0.00 0.00 0.00 86 1014.0
20210625052501 79 121 8.0 14.0 0.00 0.00 0.00 86 1014.0
20210625052001 79 119 6.0 12.0 0.00 0.00 0.00 86 1014.1
20210625051659 80 122 6.0 12.0 0.00 0.00 0.00 85 1013.9
20210625051111 80 116 5.0 11.0 0.00 0.00 0.00 85 1014.0
20210625050557 80 146 3.0 10.0 0.00 0.00 0.00 85 1014.1
20210625050152 80 123 5.0 10.0 0.00 0.00 0.00 84 1014.1
20210625045556 80 125 5.0 13.0 0.00 0.00 0.00 84 1014.1
20210625045058 80 126 5.0 13.0 0.00 0.00 0.00 83 1014.0
20210625044635 80 136 2.0 9.0 0.00 0.00 0.00 83 1013.9
20210625044055 80 123 4.0 10.0 0.00 0.00 0.00 82 1014.0
20210625043556 81 137 4.0 12.0 0.00 0.00 0.00 82 1013.9
20210625043111 81 118 6.0 12.0 0.00 0.00 0.00 82 1013.9
20210625042600 81 121 7.0 14.0 0.00 0.00 0.00 82 1013.9
20210625042055 81 147 7.0 14.0 0.00 0.00 0.00 81 1013.8
20210625041818 81 121 5.0 12.0 0.00 0.00 0.00 81 1013.8
20210625041055 81 109 5.0 12.0 0.00 0.00 0.00 81 1013.6
20210625040553 81 121 6.0 12.0 0.00 0.00 0.00 81 1013.5
20210625040226 81 123 6.0 12.0 0.00 0.00 0.00 81 1013.4
20210625035605 82 126 5.0 11.0 0.00 0.00 0.00 80 1013.4
20210625035109 82 118 5.0 15.0 0.00 0.00 0.00 79 1013.3
20210625034707 82 118 7.0 15.0 0.00 0.00 0.00 79 1013.2
20210625034113 82 144 8.0 15.0 0.00 0.00 0.00 78 1013.1
20210625033607 82 124 6.0 15.0 0.00 0.00 0.00 77 1013.1
20210625033143 82 128 8.0 16.0 0.00 0.00 0.00 77 1013.1
20210625032552 82 161 8.0 16.0 0.00 0.00 0.00 76 1013.1
20210625032052 82 141 8.0 11.0 0.00 0.00 0.00 76 1013.1
20210625031620 83 132 5.0 14.0 0.00 0.00 0.00 76 1013.0
20210625031124 83 138 7.0 14.0 0.00 0.00 0.00 76 1012.9
20210625030554 83 150 6.0 11.0 0.00 0.00 0.00 76 1012.8
20210625030118 83 156 7.0 11.0 0.00 0.00 0.00 76 1012.8
20210625025550 83 117 5.0 12.0 0.00 0.00 0.00 76 1012.8
20210625025051 83 160 7.0 12.0 0.00 0.00 0.00 76 1012.6
20210625024625 83 128 6.0 11.0 0.00 0.00 0.00 76 1012.5
20210625024056 83 125 4.0 9.0 0.00 0.00 0.00 76 1012.6
20210625023550 83 149 4.0 9.0 0.00 0.00 0.00 76 1012.5
20210625023118 83 128 4.0 8.0 0.00 0.00 0.00 77 1012.3
20210625022606 84 124 3.0 10.0 0.00 0.00 0.00 77 1012.4
20210625022050 84 148 4.0 9.0 0.00 0.00 0.00 76 1012.4
20210625021613 84 142 5.0 9.0 0.00 0.00 0.00 76 1012.3
20210625021056 84 147 3.0 10.0 0.00 0.00 0.00 75 1012.3
20210625020612 84 142 4.0 10.0 0.00 0.00 0.00 75 1012.2
20210625020250 85 123 4.0 10.0 0.00 0.00 0.00 74 1012.0
20210625015558 85 134 4.0 10.0 0.00 0.00 0.00 74 1012.0
20210625015050 85 158 5.0 11.0 0.00 0.00 0.00 74 1011.9
20210625014625 85 150 5.0 11.0 0.00 0.00 0.00 74 1011.9
20210625014106 85 134 3.0 11.0 0.00 0.00 0.00 74 1011.8
20210625013548 86 130 6.0 11.0 0.00 0.00 0.00 74 1011.7
20210625013112 86 152 5.0 13.0 0.00 0.00 0.00 73 1011.7
20210625012547 86 130 5.0 14.0 0.00 0.00 0.00 72 1011.7
20210625012143 86 155 8.0 15.0 0.00 0.00 0.00 72 1011.6
20210625011651 87 126 6.0 17.0 0.00 0.00 0.00 71 1011.7
20210625011104 87 164 9.0 17.0 0.00 0.00 0.00 71 1011.6
20210625010556 87 148 8.0 13.0 0.00 0.00 0.00 71 1011.4
20210625010119 88 67 4.0 18.0 0.00 0.00 0.00 70 1011.4
20210625005554 88 119 10.0 18.0 0.00 0.00 0.00 70 1011.3
20210625005054 88 111 7.0 16.0 0.00 0.00 0.00 70 1011.4
20210625004633 88 105 9.0 16.0 0.00 0.00 0.00 69 1011.3
20210625004046 89 121 9.0 16.0 0.00 0.00 0.00 68 1011.2
20210625003546 89 360 11.0 18.0 0.00 0.00 0.00 68 1011.1
20210625003218 89 115 11.0 18.0 0.00 0.00 0.00 67 1011.1
20210625002551 90 123 8.0 15.0 0.00 0.00 0.00 67 1011.1
20210625002045 90 132 7.0 17.0 0.00 0.00 0.00 67 1011.1
20210625001638 90 128 9.0 19.0 0.00 0.00 0.00 66 1011.1
20210625001044 91 142 9.0 19.0 0.00 0.00 0.00 65 1011.0
20210625000545 91 165 6.0 15.0 0.00 0.00 0.00 65 1011.0
20210625000053 91 144 10.0 14.0 0.00 0.00 0.00 64 1011.1
20210624235552 90 136 8.0 16.0 0.00 0.00 0.00 64 1011.1
20210624235103 91 167 6.0 16.0 0.00 0.00 0.00 63 1011.1
20210624234618 91 157 5.0 15.0 0.00 0.00 0.00 62 1011.0
20210624234044 92 132 7.0 16.0 0.00 0.00 0.00 62 1011.0
20210624233544 92 146 10.0 16.0 0.00 0.00 0.00 60 1010.9
20210624233146 92 130 10.0 15.0 0.00 0.00 0.00 60 1010.9
20210624232552 92 123 6.0 13.0 0.00 0.00 0.00 61 1011.0
20210624232043 92 114 5.0 14.0 0.00 0.00 0.00 60 1010.9
20210624231605 93 119 10.0 14.0 0.00 0.00 0.00 57 1011.0
20210624231042 93 121 7.0 16.0 0.00 0.00 0.00 57 1011.0
20210624230608 93 126 9.0 17.0 0.00 0.00 0.00 57 1011.0
20210624230157 93 112 9.0 18.0 0.00 0.00 0.00 56 1010.9
20210624225542 94 119 11.0 18.0 0.00 0.00 0.00 55 1010.9
20210624225039 94 113 9.0 14.0 0.00 0.00 0.00 55 1011.0
20210624224554 94 109 6.0 13.0 0.00 0.00 0.00 56 1011.1
20210624224048 94 149 6.0 12.0 0.00 0.00 0.00 53 1011.1
20210624223555 94 171 6.0 14.0 0.00 0.00 0.00 52 1011.2
20210624223107 94 125 6.0 14.0 0.00 0.00 0.00 53 1011.1
20210624222542 94 91 9.0 14.0 0.00 0.00 0.00 52 1011.2
20210624222035 94 152 6.0 19.0 0.00 0.00 0.00 53 1011.2
20210624221623 94 142 7.0 19.0 0.00 0.00 0.00 53 1011.2
20210624221033 94 146 6.0 15.0 0.00 0.00 0.00 54 1011.3
20210624220533 93 126 7.0 15.0 0.00 0.00 0.00 53 1011.4
20210624220056 93 155 7.0 11.0 0.00 0.00 0.00 54 1011.5
20210624215532 93 200 6.0 12.0 0.00 0.00 0.00 55 1011.6
20210624215042 93 130 8.0 16.0 0.00 0.00 0.00 54 1011.6
20210624214648 94 116 9.0 16.0 0.00 0.00 0.00 54 1011.5
20210624214036 94 113 6.0 15.0 0.00 0.00 0.00 54 1011.7
20210624213530 94 128 9.0 17.0 0.00 0.00 0.00 56 1011.7
20210624213044 94 113 6.0 13.0 0.00 0.00 0.00 56 1011.8
20210624212529 94 140 6.0 13.0 0.00 0.00 0.00 56 1011.9
20210624212029 94 136 7.0 11.0 0.00 0.00 0.00 56 1012.0
20210624211551 94 148 7.0 13.0 0.00 0.00 0.00 57 1012.0
20210624211030 94 176 6.0 13.0 0.00 0.00 0.00 56 1012.0
20210624210540 93 168 8.0 15.0 0.00 0.00 0.00 56 1012.1
20210624210048 92 128 7.0 12.0 0.00 0.00 0.00 58 1012.1
20210624205524 92 188 4.0 14.0 0.00 0.00 0.00 60 1012.2
20210624205044 92 135 7.0 14.0 0.00 0.00 0.00 60 1012.3
20210624204545 92 138 7.0 14.0 0.00 0.00 0.00 59 1012.3
20210624204023 92 142 7.0 14.0 0.00 0.00 0.00 59 1012.4
20210624203521 93 173 6.0 11.0 0.00 0.00 0.00 59 1012.3
20210624203026 92 138 7.0 14.0 0.00 0.00 0.00 58 1012.3
20210624202532 93 153 8.0 13.0 0.00 0.00 0.00 60 1012.5
20210624202020 92 187 7.0 15.0 0.00 0.00 0.00 59 1012.5
20210624201523 92 128 8.0 15.0 0.00 0.00 0.00 60 1012.4
20210624201019 92 123 6.0 13.0 0.00 0.00 0.00 60 1012.6
20210624200520 92 158 6.0 11.0 0.00 0.00 0.00 60 1012.6
20210624200044 92 160 4.0 15.0 0.00 0.00 0.00 61 1012.6
20210624195517 91 117 8.0 15.0 0.00 0.00 0.00 63 1012.8
20210624195017 91 165 5.0 12.0 0.00 0.00 0.00 63 1012.9
20210624194552 91 156 6.0 13.0 0.00 0.00 0.00 64 1013.0
20210624194019 91 128 8.0 13.0 0.00 0.00 0.00 61 1013.2
20210624193520 92 134 6.0 11.0 0.00 0.00 0.00 64 1013.2
20210624193021 92 176 7.0 15.0 0.00 0.00 0.00 61 1013.3
20210624192531 92 168 8.0 15.0 0.00 0.00 0.00 61 1013.5
20210624192016 92 162 7.0 14.0 0.00 0.00 0.00 64 1013.4
20210624191514 91 117 8.0 14.0 0.00 0.00 0.00 62 1013.4
20210624191029 91 177 8.0 15.0 0.00 0.00 0.00 61 1013.5
20210624190515 91 148 8.0 16.0 0.00 0.00 0.00 64 1013.7
20210624190013 91 146 5.0 12.0 0.00 0.00 0.00 62 1013.9
20210624185510 91 169 5.0 12.0 0.00 0.00 0.00 63 1014.0
20210624185007 91 167 6.0 14.0 0.00 0.00 0.00 63 1014.2
20210624184528 91 140 6.0 19.0 0.00 0.00 0.00 63 1014.2
20210624184011 91 180 6.0 19.0 0.00 0.00 0.00 64 1014.2
20210624183504 90 143 5.0 12.0 0.00 0.00 0.00 64 1014.2
20210624183005 90 161 7.0 15.0 0.00 0.00 0.00 67 1014.3
20210624182506 90 134 7.0 14.0 0.00 0.00 0.00 67 1014.5
20210624182002 90 150 6.0 14.0 0.00 0.00 0.00 64 1014.4
20210624181501 90 150 6.0 12.0 0.00 0.00 0.00 66 1014.6
20210624181059 90 132 5.0 10.0 0.00 0.00 0.00 66 1014.6
20210624180620 89 128 7.0 13.0 0.00 0.00 0.00 69 1014.7
20210624180229 89 160 7.0 13.0 0.00 0.00 0.00 67 1014.7
20210624175558 89 162 6.0 12.0 0.00 0.00 0.00 66 1014.7
20210624175059 89 153 6.0 12.0 0.00 0.00 0.00 70 1014.8
20210624174708 88 143 3.0 12.0 0.00 0.00 0.00 71 1014.7
20210624174056 87 128 7.0 12.0 0.00 0.00 0.00 72 1014.9
20210624173621 87 143 4.0 8.0 0.00 0.00 0.00 73 1014.9
20210624173133 87 159 5.0 8.0 0.00 0.00 0.00 72 1015.0
20210624172557 87 218 4.0 10.0 0.00 0.00 0.00 72 1015.1
20210624172056 87 162 6.0 11.0 0.00 0.00 0.00 71 1015.0
20210624171707 87 154 5.0 14.0 0.00 0.00 0.00 70 1015.0
20210624171054 88 215 6.0 14.0 0.00 0.00 0.00 69 1015.0
20210624170553 88 235 7.0 12.0 0.00 0.00 0.00 70 1015.0
20210624170144 87 189 4.0 13.0 0.00 0.00 0.00 71 1015.0
20210624165554 87 175 6.0 13.0 0.00 0.00 0.00 73 1015.1
20210624165053 87 153 7.0 14.0 0.00 0.00 0.00 73 1015.1
20210624164723 87 165 7.0 14.0 0.00 0.00 0.00 74 1015.1
20210624164050 86 126 8.0 13.0 0.00 0.00 0.00 75 1015.1
20210624163549 85 139 5.0 12.0 0.00 0.00 0.00 77 1015.2
20210624163138 85 159 6.0 12.0 0.00 0.00 0.00 76 1015.2
20210624162547 85 122 5.0 14.0 0.00 0.00 0.00 77 1015.2
20210624162048 85 155 8.0 14.0 0.00 0.00 0.00 75 1015.2
20210624161639 85 152 4.0 7.0 0.00 0.00 0.00 77 1015.1
20210624161046 85 162 5.0 12.0 0.00 0.00 0.00 77 1015.1
20210624160546 85 184 6.0 12.0 0.00 0.00 0.00 78 1015.2
20210624160147 84 182 5.0 11.0 0.00 0.00 0.00 78 1015.1
20210624155545 84 120 6.0 11.0 0.00 0.00 0.00 78 1015.2
20210624155053 84 146 4.0 8.0 0.00 0.00 0.00 79 1015.2
20210624154620 84 141 3.0 11.0 0.00 0.00 0.00 81 1015.2
20210624154047 83 179 7.0 11.0 0.00 0.00 0.00 81 1015.2
20210624153614 83 175 4.0 9.0 0.00 0.00 0.00 82 1015.3
20210624153102 82 142 4.0 9.0 0.00 0.00 0.00 83 1015.3
20210624152607 82 152 3.0 9.0 0.00 0.00 0.00 83 1015.3
20210624152053 82 118 4.0 8.0 0.00 0.00 0.00 83 1015.3
20210624151637 82 134 3.0 9.0 0.00 0.00 0.00 84 1015.4
20210624151054 82 115 5.0 10.0 0.00 0.00 0.00 83 1015.5
20210624150559 82 122 4.0 12.0 0.00 0.00 0.00 85 1015.4
20210624150108 82 117 8.0 12.0 0.00 0.00 0.00 84 1015.3
20210624145540 81 143 5.0 12.0 0.00 0.00 0.00 84 1015.4
20210624145049 81 148 5.0 11.0 0.00 0.00 0.00 84 1015.6
20210624144621 81 117 6.0 11.0 0.00 0.00 0.00 84 1015.5
20210624144039 81 139 6.0 11.0 0.00 0.00 0.00 85 1015.6
20210624143543 81 130 6.0 10.0 0.00 0.00 0.00 86 1015.7
20210624143056 80 165 3.0 10.0 0.00 0.00 0.00 87 1015.6
20210624142532 80 140 5.0 10.0 0.00 0.00 0.00 87 1015.6
20210624142031 80 147 4.0 12.0 0.00 0.00 0.00 88 1015.6
20210624141645 80 147 5.0 12.0 0.00 0.00 0.00 88 1015.5
20210624141030 80 157 3.0 9.0 0.00 0.00 0.00 89 1015.6
20210624140534 79 146 4.0 8.0 0.00 0.00 0.00 89 1015.6